CDT,Max TemperatureF,Mean TemperatureF,Min TemperatureF,Max Dew PointF,MeanDew PointF,Min DewpointF,Max Humidity, Mean Humidity, Min Humidity, Max Sea Level PressureIn, Mean Sea Level PressureIn, Min Sea Level PressureIn, Max VisibilityMiles, Mean VisibilityMiles, Min VisibilityMiles, Max Wind SpeedMPH, Mean Wind SpeedMPH, Max Gust SpeedMPH,PrecipitationIn, CloudCover, Events, WindDirDegrees
2012-10-1,73,58,44,55,47,40,86,67,41,29.99,29.94,29.89,10,10,9,23,8,34,0.00,2,,342
2012-10-2,75,58,43,46,38,32,82,52,21,30.03,29.96,29.87,10,10,10,13,7,,0.00,0,,317
2012-10-3,82,62,42,50,43,37,82,51,26,29.94,29.87,29.79,10,10,10,22,7,30,0.00,0,,169
2012-10-4,66,58,50,50,39,34,69,51,36,30.26,30.16,29.89,10,10,10,20,10,30,0.00,5,,8
2012-10-5,57,45,35,34,31,26,78,53,32,30.34,30.27,30.23,10,10,10,20,8,26,0.00,4,,30
2012-10-6,46,42,39,36,33,29,86,70,51,30.42,30.35,30.30,10,10,3,13,6,21,0.00,8,Rain,355
2012-10-7,55,41,27,34,29,25,92,64,37,30.38,30.28,30.16,10,10,7,13,5,18,0.00,1,,274
2012-10-8,71,52,34,35,31,27,78,51,22,30.15,30.03,29.91,10,10,10,21,9,31,0.00,0,,193
2012-10-9,69,57,44,43,38,29,73,56,36,30.18,29.94,29.84,10,10,10,18,11,29,0.00,0,,96
2012-10-10,68,48,30,31,27,25,85,50,21,30.29,30.19,30.09,10,10,9,12,4,,0.00,0,Snow,223
2012-10-11,86,65,46,61,44,31,68,52,38,30.09,30.01,29.89,10,10,10,20,9,28,0.00,2,,156
2012-10-12,64,54,48,57,49,35,100,82,42,30.24,30.12,30.01,10,5,0,18,9,30,0.01,8,Fog-Rain-Thunderstorm,71
2012-10-13,82,71,60,67,62,47,100,84,56,29.99,29.80,29.54,10,7,2,25,12,31,0.39,6,Rain-Thunderstorm,194
2012-10-14,77,62,48,51,44,39,83,57,26,30.04,29.92,29.61,10,10,10,25,14,36,0.00,0,,324
2012-10-15,88,66,44,47,43,36,89,52,16,30.02,29.90,29.75,10,10,10,14,4,20,0.00,0,,227
2012-10-16,82,68,55,55,45,42,68,44,24,29.74,29.60,29.45,10,10,9,14,9,,0.00,0,,194
2012-10-17,72,60,42,55,39,18,89,50,18,29.82,29.58,29.37,10,10,8,25,12,38,0.00,1,Rain,310
2012-10-18,64,56,48,24,21,15,38,27,15,29.88,29.83,29.77,10,8,2,33,17,50,0.00,4,,300
2012-10-19,66,52,39,27,22,15,62,31,15,29.91,29.85,29.81,10,10,10,26,15,34,0.00,0,,312
2012-10-20,86,60,37,51,35,24,67,44,20,29.81,29.72,29.62,10,10,9,15,5,,0.00,0,,164
2012-10-21,88,70,53,65,59,49,100,74,36,29.73,29.66,29.57,10,7,0,20,10,26,0.00,2,Fog,151
2012-10-22,73,62,51,65,57,52,100,83,68,29.85,29.76,29.61,10,6,0,21,11,29,0.00,2,Fog,231
2012-10-23,89,76,62,66,57,42,94,63,20,29.79,29.69,29.60,10,10,8,23,14,26,0.00,3,,183
2012-10-24,82,73,64,65,63,54,94,73,49,29.78,29.69,29.59,10,10,7,23,16,37,0.00,4,,185
2012-10-25,69,54,37,63,41,29,93,73,45,30.33,29.93,29.56,10,9,4,29,18,37,0.01,6,Rain,350
2012-10-26,48,37,27,26,24,21,78,61,40,30.56,30.45,30.36,10,10,10,16,11,24,0.00,3,,3
2012-10-27,48,34,21,27,23,19,89,65,39,30.45,30.34,30.23,10,10,9,9,2,,0.00,1,,132
2012-10-28,57,42,27,29,25,22,81,54,30,30.32,30.25,30.18,10,10,10,13,5,22,0.00,4,,154
2012-10-29,68,51,36,31,27,23,62,43,25,30.22,30.14,30.03,10,10,10,23,11,28,0.00,0,,170
2012-10-30,73,60,46,37,35,31,66,47,26,30.02,29.95,29.88,10,10,10,10,5,,0.00,2,,89
2012-10-31,71,52,34,36,34,31,89,57,29,30.09,30.03,29.96,10,10,8,8,4,,0.00,0,,126